Location: Hiram
(41.3130°N, 81.1440°W)
Time: 16:40:23
(UTC-04:00)

Amateur Radio Satellites - All Passes

Search period start: 30 March 2017 16:10
Search period end: 31 March 2017 16:10
Location: Hiram, 41.3130°N, 81.1440°W

Satellite Date Start Highest point End Downlink Frequencies (MHz)
Time Altitude Azimuth
SO-50 30 Mar 16:32:40 16:35:06 14° 322° (NW) 16:37:30 436.795
AO-7 30 Mar 16:38:59 16:47:06 56° 257° (WSW) 16:55:16 .
MOZHAYETS 4 30 Mar 16:41:04 16:45:31 52° 100° (E) 16:49:57
RS-15 30 Mar 16:57:40 17:07:11 25° 348° (NNW) 17:16:43 29.354- 29.394
BEESAT 30 Mar 17:04:00 17:08:26 41° 290° (WNW) 17:12:52 436.000
ITAMSAT 1 30 Mar 17:07:49 17:11:30 19° 267° (W) 17:15:12 435.822/435.867
O/OREOS (USA 219) 30 Mar 17:17:00 17:21:29 64° 294° (WNW) 17:26:02 437.305
PCSat 30 Mar 17:21:52 17:25:53 20° 45° (NE) 17:29:53 145.827
ITUPSAT 1 30 Mar 17:23:40 17:27:40 27° 293° (WNW) 17:31:39 437.325
KKS-1 30 Mar 17:26:35 17:30:36 32° 97° (E) 17:34:36 437.445
CUBESAT XI-V 30 Mar 17:45:20 17:49:45 42° 98° (E) 17:54:11 437.345
CUTE-I 30 Mar 17:49:44 17:54:00 25° 64° (ENE) 17:58:15 437.470
STARS 30 Mar 17:50:15 17:53:55 25° 95° (E) 17:57:32 437.465
HO-68 30 Mar 17:54:23 17:56:22 11° 48° (NE) 17:58:21 435.675
YUBILEINY 30 Mar 17:59:00 18:06:13 28° 67° (ENE) 18:13:24 435.215
DOVE 4 30 Mar 18:00:58 18:05:24 39° 70° (ENE) 18:10:07 437.250
XW-2F 30 Mar 18:03:41 18:06:43 23° 69° (ENE) 18:09:46 145.980 - 146.000
LilacSat-2 30 Mar 18:12:56 18:16:22 33° 72° (ENE) 18:19:49 437.200
NUDT-PHONESAT 30 Mar 18:15:21 18:18:31 26° 70° (ENE) 18:21:39 437.300
MOZHAYETS 4 30 Mar 18:19:27 18:22:15 16° 296° (WNW) 18:25:02
KAITUO 1B 30 Mar 18:28:10 18:31:39 38° 73° (ENE) 18:35:07 145.475/437.950
XW-2D 30 Mar 18:31:49 18:35:31 56° 75° (ENE) 18:39:15 145.860 - 145.880
XW-2B 30 Mar 18:37:49 18:41:35 64° 75° (ENE) 18:45:20 145.730 - 145.750
XW-2C 30 Mar 18:48:11 18:51:59 89° 105° (ESE) 18:55:47 145.795 - 145.815
XW-2A 30 Mar 18:50:39 18:51:33 11° 65° (ENE) 18:52:27 145.665 - 145.685
Tancredo 1 30 Mar 19:02:44 19:05:01 19° 133° (SE) 19:07:20 437.200
KKS-1 30 Mar 19:03:24 19:07:00 24° 293° (WNW) 19:10:36 437.445
PCSat 30 Mar 19:04:24 19:09:49 70° 244° (WSW) 19:15:11 145.827
CUTE 1.7 + AOD 2 30 Mar 19:13:14 19:16:21 21° 67° (ENE) 19:19:28 437.475
RS-15 30 Mar 19:15:05 19:25:22 29° 23° (NNE) 19:35:24 29.354- 29.394
CUBESAT XI-V 30 Mar 19:23:24 19:26:49 21° 294° (WNW) 19:30:15 437.345
ISS 30 Mar 19:23:39 19:26:27 27° 135° (SE) 19:29:17 437.550
STARS 30 Mar 19:26:23 19:30:14 30° 292° (WNW) 19:34:03 437.465
CUTE-I 30 Mar 19:28:37 19:33:45 45° 261° (W) 19:38:54 437.470
HO-68 30 Mar 19:35:39 19:42:36 58° 68° (ENE) 19:49:34 435.675
XW-2F 30 Mar 19:37:45 19:40:47 23° 265° (W) 19:43:49 145.980 - 146.000
DOVE 4 30 Mar 19:39:23 19:43:13 24° 268° (W) 19:47:14 437.250
CUBEBUG 2 30 Mar 19:43:08 19:46:51 23° 67° (ENE) 19:50:31 437.445
LilacSat-2 30 Mar 19:48:16 19:50:45 16° 267° (W) 19:53:14 437.200
M-CUBED/EXP-1 PRIME 30 Mar 19:48:41 19:53:15 49° 104° (ESE) 19:57:43 437.505
NUDT-PHONESAT 30 Mar 19:49:39 19:52:25 20° 266° (W) 19:55:11 437.300
YUBILEINY 30 Mar 19:55:04 20:03:39 65° 268° (W) 20:12:13 435.215
AO-73 30 Mar 19:58:44 19:59:33 10° 62° (ENE) 20:00:23 145.935
AAUSAT CUBESAT 2 30 Mar 20:03:17 20:06:30 23° 68° (ENE) 20:09:45 437.432
KAITUO 1B 30 Mar 20:03:53 20:05:50 14° 268° (W) 20:07:47 145.475/437.950
XW-2A 30 Mar 20:20:35 20:23:53 44° 260° (W) 20:27:13 145.665 - 145.685
STRAND 1 30 Mar 20:28:31 20:33:26 45° 99° (E) 20:38:17 437.568
AO-85 30 Mar 20:30:49 20:35:11 62° 120° (ESE) 20:39:18 145.980
SEEDS 30 Mar 20:31:49 20:35:57 80° 258° (WSW) 20:40:08 437.485
UWE-3 30 Mar 20:35:03 20:39:30 47° 73° (ENE) 20:43:53 435.000/436.395/437.385
Tancredo 1 30 Mar 20:37:51 20:40:53 46° 329° (NNW) 20:43:57 437.200
CUTE 1.7 + AOD 2 30 Mar 20:48:09 20:51:58 33° 263° (W) 20:55:47 437.475
Oscar 11 30 Mar 20:49:42 20:53:27 30° 69° (ENE) 20:57:12 .
ISS 30 Mar 20:59:47 21:02:50 36° 332° (NNW) 21:05:55 437.550
ZACube-1 30 Mar 21:05:08 21:09:34 58° 74° (ENE) 21:13:56 437.345
CUBEBUG 2 30 Mar 21:18:49 21:23:13 38° 263° (W) 21:27:36 437.445
M-CUBED/EXP-1 PRIME 30 Mar 21:23:54 21:27:18 20° 300° (WNW) 21:30:40 437.505
HO-68 30 Mar 21:24:48 21:30:40 27° 266° (W) 21:36:34 435.675
RS-15 30 Mar 21:28:21 21:40:42 70° 53° (NE) 21:52:26 29.354- 29.394
AO-73 30 Mar 21:30:38 21:35:09 82° 258° (WSW) 21:39:36 145.935
AAUSAT CUBESAT 2 30 Mar 21:38:17 21:41:50 28° 264° (W) 21:45:24 437.432
BEESAT 3 30 Mar 21:41:21 21:44:56 35° 116° (ESE) 21:48:34 437.485
SO-50 30 Mar 21:41:38 21:43:58 14° 38° (NE) 21:46:16 436.795
YUBILEINY 30 Mar 21:56:57 21:58:35 11° 288° (WNW) 22:00:12 435.215
BEESAT 2 30 Mar 22:07:55 22:11:15 27° 114° (ESE) 22:14:38 435.950
STRAND 1 30 Mar 22:08:23 22:12:17 22° 296° (WNW) 22:16:10 437.568
UWE-3 30 Mar 22:13:08 22:16:09 17° 268° (W) 22:19:09 435.000/436.395/437.385
AO-85 30 Mar 22:13:11 22:15:55 16° 316° (NW) 22:18:33 145.980
DELFI C3 30 Mar 22:14:32 22:18:26 79° 76° (ENE) 22:22:23 145.870
Tancredo 1 30 Mar 22:15:39 22:17:35 15° 348° (NNW) 22:19:32 437.200
LO-87 30 Mar 22:25:46 22:26:37 11° 64° (ENE) 22:27:28 145.935 - 145.965
Oscar 11 30 Mar 22:26:05 22:29:34 24° 265° (W) 22:33:04 .
FO-29 30 Mar 22:32:42 22:34:33 12° 86° (E) 22:36:21 435.910
ISS 30 Mar 22:38:04 22:40:01 15° 352° (N) 22:41:58 437.550
PRISM 30 Mar 22:39:13 22:43:07 37° 98° (E) 22:46:59 437.425
ZACube-1 30 Mar 22:43:59 22:46:09 13° 269° (W) 22:48:20 437.345
TIGRISAT 30 Mar 23:08:07 23:12:11 37° 97° (E) 23:16:10 435.000
BEESAT 3 30 Mar 23:19:28 23:22:37 22° 314° (NW) 23:25:48 437.485
UNISAT 6 30 Mar 23:19:38 23:23:56 55° 100° (E) 23:28:08 437.425
SO-50 30 Mar 23:20:35 23:25:07 86° 55° (NE) 23:29:36 436.795
RS-15 30 Mar 23:41:49 23:52:17 36° 255° (WSW) 00:02:21 29.354- 29.394
BEESAT 2 30 Mar 23:45:29 23:48:56 28° 311° (NW) 23:52:27 435.950
ESTCUBE 1 30 Mar 23:51:58 23:56:23 64° 74° (ENE) 00:00:49 437.505/2401.250
Tancredo 1 30 Mar 23:52:52 23:54:40 14° 9° (N) 23:56:29 437.200
LO-87 30 Mar 23:56:05 23:59:35 51° 260° (W) 00:03:09 145.935 - 145.965
DX 1 31 Mar 00:07:18 00:09:05 12° 61° (ENE) 00:10:53 434.975-435.025
FO-29 31 Mar 00:14:45 00:20:36 81° 285° (WNW) 00:25:53 435.910
PRISM 31 Mar 00:15:12 00:18:07 19° 294° (WNW) 00:21:01 437.425
ISS 31 Mar 00:15:18 00:17:28 16° 12° (NNE) 00:19:39 437.550
NANOSAT C BR1 31 Mar 00:18:59 00:21:45 17° 93° (E) 00:24:30 145.865
AIST 2D 31 Mar 00:20:39 00:23:49 32° 97° (E) 00:26:59 435.315
EO-79 31 Mar 00:26:15 00:29:36 22° 95° (E) 00:32:54 145.935-145.965
50 SAT 31 Mar 00:27:12 00:30:00 23° 70° (ENE) 00:32:48 437.505
UKube-1 31 Mar 00:36:14 00:39:06 18° 64° (ENE) 00:41:58 .
VELOX 1 31 Mar 00:43:16 00:47:39 70° 75° (ENE) 00:52:05 145.980
TIGRISAT 31 Mar 00:45:28 00:48:36 20° 295° (WNW) 00:51:41 435.000
SPROUT 31 Mar 00:50:46 00:55:03 73° 75° (ENE) 00:59:22 437.525
POLYITAN 1 31 Mar 00:55:21 00:59:27 48° 100° (E) 01:03:30 437.675
UNISAT 6 31 Mar 00:57:52 01:00:09 14° 297° (WNW) 01:02:25 437.425
QB50P2 31 Mar 01:00:10 01:04:22 60° 101° (E) 01:08:31 145.880/145.840
BUGSAT 1 31 Mar 01:02:19 01:04:43 15° 92° (E) 01:07:05 437.445
DUCHIFAT 1 31 Mar 01:04:46 01:08:52 50° 100° (E) 01:12:54 145.980
Tancredo 1 31 Mar 01:28:27 01:31:26 37° 28° (NNE) 01:34:26 437.200
ESTCUBE 1 31 Mar 01:32:00 01:33:36 12° 270° (W) 01:35:13 437.505/2401.250
DX 1 31 Mar 01:40:23 01:44:41 67° 258° (WSW) 01:49:03 434.975-435.025
Oscar 19 31 Mar 01:43:08 01:46:06 15° 91° (E) 01:49:02 437.125/150
O/OREOS (USA 219) 31 Mar 01:48:09 01:52:01 26° 58° (ENE) 01:55:51 437.305
ISS 31 Mar 01:51:17 01:54:31 52° 32° (NNE) 01:57:44 437.550
NANOSAT C BR1 31 Mar 01:53:41 01:57:37 39° 289° (WNW) 02:01:32 145.865
AIST 2D 31 Mar 01:54:50 01:56:45 14° 293° (WNW) 01:58:39 435.315
50 SAT 31 Mar 02:00:30 02:02:59 19° 265° (W) 02:05:29 437.505
EO-79 31 Mar 02:01:39 02:05:22 30° 291° (WNW) 02:09:02 145.935-145.965
FO-29 31 Mar 02:02:41 02:04:32 12° 306° (NW) 02:06:21 435.910
UKube-1 31 Mar 02:10:41 02:14:47 43° 261° (W) 02:18:55 .
VELOX 1 31 Mar 02:23:43 02:24:34 10° 271° (W) 02:25:25 145.980
POLYITAN 1 31 Mar 02:32:22 02:34:50 15° 296° (WNW) 02:37:16 437.675
BEESAT 31 Mar 02:33:17 02:37:10 25° 66° (ENE) 02:41:02 436.000
Gurwin Techsat 1B 31 Mar 02:35:51 02:40:23 28° 95° (E) 02:44:53 435.225
BUGSAT 1 31 Mar 02:36:21 02:40:18 43° 288° (WNW) 02:44:11 437.445
QB50P2 31 Mar 02:37:46 02:39:39 13° 297° (WNW) 02:41:30 145.880/145.840
DUCHIFAT 1 31 Mar 02:41:47 02:44:05 15° 296° (WNW) 02:46:23 145.980
ITUPSAT 1 31 Mar 02:52:17 02:56:41 37° 69° (ENE) 03:01:05 437.325
Tancredo 1 31 Mar 03:04:45 03:07:26 25° 225° (SW) 03:10:07 437.200
Oscar 19 31 Mar 03:20:43 03:25:51 65° 287° (WNW) 03:30:58 437.125/150
O/OREOS (USA 219) 31 Mar 03:27:19 03:31:27 33° 256° (WSW) 03:35:32 437.305
ISS 31 Mar 03:28:22 03:30:44 18° 228° (SW) 03:33:05 437.550
ITAMSAT 1 31 Mar 03:40:34 03:44:02 18° 92° (E) 03:47:29 435.822/435.867
MOZHAYETS 4 31 Mar 03:42:39 03:47:05 50° 72° (ENE) 03:51:30
BEESAT 31 Mar 04:10:24 04:14:46 35° 263° (W) 04:19:08 436.000
Gurwin Techsat 1B 31 Mar 04:15:30 04:20:22 37° 292° (WNW) 04:25:12 435.225
KKS-1 31 Mar 04:24:33 04:28:27 30° 68° (ENE) 04:32:22 437.445
ITUPSAT 1 31 Mar 04:30:49 04:34:36 23° 266° (W) 04:38:23 437.325
AO-7 31 Mar 04:40:17 04:48:19 51° 102° (ESE) 04:56:18 .
STARS 31 Mar 04:46:55 04:50:25 23° 67° (ENE) 04:53:57 437.465
CUBESAT XI-V 31 Mar 04:48:31 04:52:47 40° 71° (ENE) 04:57:06 437.345
AO-85 31 Mar 05:01:54 05:05:43 48° 54° (NE) 05:09:38 145.980
ITAMSAT 1 31 Mar 05:18:46 05:23:50 55° 288° (WNW) 05:28:52 435.822/435.867
MOZHAYETS 4 31 Mar 05:21:42 05:24:30 16° 269° (W) 05:27:19
NO-84 31 Mar 05:21:56 05:24:17 21° 130° (SE) 05:26:33 435.350 FM
BEESAT 3 31 Mar 05:58:07 06:01:25 24° 47° (NE) 06:04:42 437.485
KKS-1 31 Mar 06:01:16 06:04:59 25° 265° (W) 06:08:43 437.445
DOVE 4 31 Mar 06:01:47 06:03:48 12° 87° (E) 06:05:47 437.250
STARS 31 Mar 06:22:35 06:26:35 33° 263° (W) 06:30:36 437.465
BEESAT 2 31 Mar 06:25:25 06:28:26 20° 45° (NE) 06:31:27 435.950
CUBESAT XI-V 31 Mar 06:26:59 06:30:18 20° 267° (W) 06:33:39 437.345
AO-7 31 Mar 06:33:25 06:40:50 38° 300° (WNW) 06:48:15 .
M-CUBED/EXP-1 PRIME 31 Mar 06:34:35 06:38:19 55° 68° (ENE) 06:42:25 437.505
AO-85 31 Mar 06:43:34 06:45:43 14° 249° (WSW) 06:47:55 145.980
NO-84 31 Mar 06:59:09 07:01:41 27° 326° (NW) 07:04:12 435.350 FM
YUBILEINY 31 Mar 07:00:35 07:07:54 31° 83° (E) 07:15:12 435.215
XW-2F 31 Mar 07:09:11 07:12:34 32° 97° (E) 07:15:56 145.980 - 146.000
NUDT-PHONESAT 31 Mar 07:19:09 07:22:32 35° 97° (E) 07:25:55 437.300
LilacSat-2 31 Mar 07:19:50 07:23:30 49° 100° (E) 07:27:09 437.200
KAITUO 1B 31 Mar 07:32:57 07:36:35 54° 100° (E) 07:40:13 145.475/437.950
BEESAT 3 31 Mar 07:35:25 07:39:05 34° 245° (WSW) 07:42:41 437.485
DOVE 4 31 Mar 07:36:47 07:42:07 82° 284° (WNW) 07:47:14 437.250
XW-2D 31 Mar 07:38:14 07:42:00 85° 100° (E) 07:45:45 145.860 - 145.880
STRAND 1 31 Mar 07:44:12 07:49:17 66° 73° (ENE) 07:54:24 437.568
XW-2B 31 Mar 07:44:20 07:48:05 83° 281° (WNW) 07:51:50 145.730 - 145.750
CUTE-I 31 Mar 07:45:16 07:50:38 73° 103° (ESE) 07:55:56 437.470
XW-2C 31 Mar 07:54:49 07:58:31 59° 285° (WNW) 08:02:11 145.795 - 145.815
BEESAT 2 31 Mar 08:02:33 08:06:25 44° 243° (WSW) 08:10:16 435.950
PCSat 31 Mar 08:05:30 08:08:22 15° 103° (ESE) 08:11:15 145.827
M-CUBED/EXP-1 PRIME 31 Mar 08:11:53 08:13:14 11° 266° (W) 08:14:36 437.505
SEEDS 31 Mar 08:16:30 08:19:13 17° 92° (E) 08:21:56 437.485
CUTE 1.7 + AOD 2 31 Mar 08:32:27 08:36:25 38° 98° (E) 08:40:23 437.475
XW-2F 31 Mar 08:44:03 08:46:28 17° 293° (WNW) 08:48:52 145.980 - 146.000
HO-68 31 Mar 08:50:35 08:57:40 60° 102° (ESE) 09:04:44 435.675
NUDT-PHONESAT 31 Mar 08:54:02 08:56:10 15° 294° (WNW) 08:58:18 437.300
YUBILEINY 31 Mar 08:55:39 09:04:11 56° 283° (WNW) 09:12:45 435.215
LilacSat-2 31 Mar 08:55:53 08:57:20 12° 296° (WNW) 08:58:47 437.200
KAITUO 1B 31 Mar 09:09:25 09:10:08 10° 296° (WNW) 09:10:50 145.475/437.950
CUBEBUG 2 31 Mar 09:09:34 09:13:43 44° 98° (E) 09:17:45 437.445
XW-2A 31 Mar 09:15:08 09:18:20 41° 286° (WNW) 09:21:29 145.665 - 145.685
DOVE 4 31 Mar 09:17:12 09:18:52 11° 302° (WNW) 09:20:30 437.250
AAUSAT CUBESAT 2 31 Mar 09:19:36 09:23:32 41° 98° (E) 09:27:28 437.432
AO-73 31 Mar 09:19:40 09:22:30 18° 92° (E) 09:25:18 145.935
STRAND 1 31 Mar 09:26:03 09:28:54 15° 269° (W) 09:31:46 437.568
CUTE-I 31 Mar 09:26:55 09:30:03 16° 300° (WNW) 09:33:09 437.470
PRISM 31 Mar 09:28:38 09:32:04 27° 68° (ENE) 09:35:32 437.425
PCSat 31 Mar 09:45:40 09:51:04 75° 300° (WNW) 09:56:32 145.827
SEEDS 31 Mar 09:51:08 09:55:04 40° 288° (WNW) 09:59:00 437.485
UWE-3 31 Mar 10:00:55 10:05:11 78° 284° (WNW) 10:09:20 435.000/436.395/437.385
TIGRISAT 31 Mar 10:06:17 10:10:31 35° 70° (ENE) 10:14:43 435.000
CUTE 1.7 + AOD 2 31 Mar 10:09:03 10:11:58 18° 294° (WNW) 10:14:53 437.475
Oscar 11 31 Mar 10:12:05 10:16:21 60° 101° (E) 10:20:35 .
UNISAT 6 31 Mar 10:17:48 10:22:18 50° 73° (ENE) 10:26:47 437.425
FO-29 31 Mar 10:24:31 10:31:50 49° 69° (ENE) 10:38:36 435.910
ZACube-1 31 Mar 10:29:35 10:33:45 64° 285° (WNW) 10:37:49 437.345
HO-68 31 Mar 10:39:05 10:44:55 28° 300° (WNW) 10:50:45 435.675
CUBEBUG 2 31 Mar 10:47:14 10:49:58 16° 296° (WNW) 10:52:38 437.445
AO-73 31 Mar 10:55:02 10:58:53 36° 289° (WNW) 11:02:39 145.935
AAUSAT CUBESAT 2 31 Mar 10:55:58 10:58:40 17° 294° (WNW) 11:01:22 437.432
AIST 2D 31 Mar 10:56:25 10:58:10 13° 66° (ENE) 10:59:54 435.315
YUBILEINY 31 Mar 11:01:58 11:03:16 10° 306° (NW) 11:04:34 435.215
PRISM 31 Mar 11:04:00 11:07:18 24° 265° (W) 11:10:38 437.425
NANOSAT C BR1 31 Mar 11:11:47 11:13:59 14° 63° (ENE) 11:16:11 145.865
EO-79 31 Mar 11:19:02 11:21:56 18° 66° (ENE) 11:24:52 145.935-145.965
LO-87 31 Mar 11:24:44 11:26:14 12° 91° (E) 11:27:43 145.935 - 145.965
DELFI C3 31 Mar 11:26:07 11:30:04 61° 285° (WNW) 11:34:00 145.870
PCSat 31 Mar 11:32:29 11:35:25 14° 321° (NW) 11:38:20 145.827
TIGRISAT 31 Mar 11:43:30 11:47:14 23° 266° (W) 11:50:57 435.000
ESTCUBE 1 31 Mar 11:45:56 11:48:12 14° 91° (E) 11:50:27 437.505/2401.250
POLYITAN 1 31 Mar 11:47:40 11:51:35 36° 71° (ENE) 11:55:31 437.675
Oscar 11 31 Mar 11:50:00 11:51:58 13° 297° (WNW) 11:53:56 .
RS-15 31 Mar 11:51:14 12:02:09 44° 107° (ESE) 12:13:22 29.354- 29.394
QB50P2 31 Mar 11:52:25 11:56:28 44° 72° (ENE) 12:00:33 145.880/145.840
BUGSAT 1 31 Mar 11:52:58 11:54:36 12° 62° (ENE) 11:56:15 437.445
NO-84 31 Mar 11:55:09 11:57:30 20° 31° (NNE) 11:59:58 435.350 FM
DUCHIFAT 1 31 Mar 11:56:17 12:00:11 37° 71° (ENE) 12:04:07 145.980
UNISAT 6 31 Mar 11:56:17 11:59:15 17° 268° (W) 12:02:12 437.425
FO-29 31 Mar 12:09:59 12:16:54 35° 264° (W) 12:23:25 435.910
AIST 2D 31 Mar 12:27:46 12:31:03 36° 262° (W) 12:34:21 435.315
VELOX 1 31 Mar 12:34:54 12:37:04 13° 91° (E) 12:39:13 145.980
SPROUT 31 Mar 12:38:25 12:40:10 12° 90° (E) 12:41:54 437.525
NANOSAT C BR1 31 Mar 12:45:02 12:49:13 55° 260° (W) 12:53:26 145.865
EO-79 31 Mar 12:53:21 12:57:23 40° 262° (W) 13:01:27 145.935-145.965
LO-87 31 Mar 12:56:26 12:59:53 41° 287° (WNW) 13:03:18 145.935 - 145.965
Oscar 19 31 Mar 12:59:43 13:03:41 23° 64° (ENE) 13:07:40 437.125/150
ESTCUBE 1 31 Mar 13:20:54 13:25:20 57° 287° (WNW) 13:29:46 437.505/2401.250
50 SAT 31 Mar 13:23:44 13:26:41 25° 96° (E) 13:29:38 437.505
POLYITAN 1 31 Mar 13:24:22 13:27:28 19° 266° (W) 13:30:34 437.675
BUGSAT 1 31 Mar 13:25:11 13:29:23 66° 258° (WSW) 13:33:38 437.445
DX 1 31 Mar 13:29:08 13:32:26 20° 94° (E) 13:35:42 434.975-435.025
QB50P2 31 Mar 13:29:49 13:32:28 16° 268° (W) 13:35:07 145.880/145.840
NO-84 31 Mar 13:32:10 13:35:08 42° 226° (SW) 13:38:20 435.350 FM
DUCHIFAT 1 31 Mar 13:32:57 13:35:58 19° 267° (W) 13:39:00 145.980
SO-50 31 Mar 13:35:10 13:39:04 27° 113° (ESE) 13:42:57 436.795
AO-7 31 Mar 13:51:16 13:55:54 16° 47° (NE) 14:00:31 .
Gurwin Techsat 1B 31 Mar 13:56:45 14:01:46 45° 70° (ENE) 14:06:49 435.225
UKube-1 31 Mar 13:57:38 14:01:26 29° 97° (E) 14:05:11 .
RS-15 31 Mar 14:02:19 14:14:13 61° 311° (NW) 14:26:31 29.354- 29.394
VELOX 1 31 Mar 14:09:28 14:13:52 57° 286° (WNW) 14:18:13 145.980
SPROUT 31 Mar 14:12:13 14:16:26 57° 286° (WNW) 14:20:35 437.525
Oscar 19 31 Mar 14:37:51 14:42:42 44° 261° (W) 14:47:36 437.125/150
50 SAT 31 Mar 14:57:03 14:59:34 19° 292° (WNW) 15:02:04 437.505
ITAMSAT 1 31 Mar 14:58:10 15:02:36 29° 66° (ENE) 15:07:03 435.822/435.867
DX 1 31 Mar 15:04:42 15:08:43 36° 290° (WNW) 15:12:42 434.975-435.025
SO-50 31 Mar 15:15:07 15:19:24 36° 311° (NW) 15:23:39 436.795
UKube-1 31 Mar 15:33:47 15:37:20 25° 293° (WNW) 15:40:52 .
Gurwin Techsat 1B 31 Mar 15:37:44 15:41:53 23° 266° (W) 15:46:05 435.225
AO-7 31 Mar 15:38:58 15:47:12 69° 67° (ENE) 15:55:25 .
MOZHAYETS 4 31 Mar 15:39:51 15:41:16 11° 89° (E) 15:42:41
O/OREOS (USA 219) 31 Mar 16:00:34 16:04:23 27° 103° (ESE) 16:08:15 437.305
